This demonstration page uses our WeatherBlox Daily Observations layout. Learn more.

Left ArrowRight Arrow

34.74481, -87.66753

Hourly Observations for September 9, 2019

Temp ( °F °C ) Dew Point ( °F °C ) Humidity (%) Winds ( mph kmh ) Pressure ( in mb ) Visibility ( mi km ) Precip ( " mm )
12:53 am 00:53 Clear 70 21.1 65 18.3 84 84 Calm 30.04 1017 10 16 0.00 0.00
1:53 am 01:53 Clear 69 20.6 65 18.3 87 87 Calm 30.04 1017 10 16 0.00 0.00
2:53 am 02:53 Clear 69 20.6 65 18.3 87 87 NNE 5 7 30.04 1017 10 16 0.00 0.00
3:53 am 03:53 Clear 67 19.4 64 17.8 91 91 Calm 30.05 1018 10 16 0.00 0.00
4:53 am 04:53 Clear 67 19.4 64 17.8 91 91 Calm 30.07 1018 10 16 0.00 0.00
5:53 am 05:53 Clear 67 19.4 64 17.8 91 91 Calm 30.09 1019 10 16 0.00 0.00
6:53 am 06:53 Sunny 66 18.9 63 17.2 90 90 Calm 30.11 1020 10 16 0.00 0.00
7:53 am 07:53 Sunny 73 22.8 66 18.9 79 79 Calm 30.12 1020 10 16 0.00 0.00
8:53 am 08:53 Sunny 77 25 65 18.3 66 66 E 3 6 30.14 1021 10 16 0.00 0.00
9:53 am 09:53 Sunny 83 28.3 64 17.8 53 53 VRB 3 6 30.14 1021 10 16 0.00 0.00
10:53 am 10:53 Sunny 90 32.2 63 17.2 41 41 VRB 3 6 30.13 1020 10 16 0.00 0.00
12:53 pm 12:53 Sunny 95 35 58 14.4 29 29 SSE 6 9 30.10 1019 10 16 0.00 0.00
1:53 pm 13:53 Sunny 97 36.1 58 14.4 27 27 NNE 9 15 30.09 1019 10 16 0.00 0.00
2:53 pm 14:53 Sunny 97 36.1 59 15 28 28 ENE 9 15 30.06 1018 10 16 0.00 0.00
3:53 pm 15:53 Sunny 97 36.1 60 15.6 29 29 ENE 7 11 30.05 1018 10 16 0.00 0.00
4:53 pm 16:53 Sunny 96 35.6 61 16.1 31 31 E 6 9 30.04 1017 10 16 0.00 0.00
5:53 pm 17:53 Sunny 94 34.4 62 16.7 35 35 E 5 7 30.04 1017 10 16 0.00 0.00
6:53 pm 18:53 Sunny 87 30.6 67 19.4 51 51 Calm 30.05 1018 10 16 0.00 0.00
7:53 pm 19:53 Clear 80 26.7 68 20 67 67 Calm 30.06 1018 10 16 0.00 0.00
8:53 pm 20:53 Clear 77 25 67 19.4 71 71 Calm 30.07 1018 10 16 0.00 0.00
9:53 pm 21:53 Clear 77 25 66 18.9 69 69 Calm 30.07 1018 10 16 0.00 0.00
10:53 pm 22:53 Clear 74 23.3 68 20 82 82 Calm 30.09 1019 10 16 0.00 0.00
11:53 pm 23:53 Clear 74 23.3 68 20 82 82 Calm 30.10 1019 10 16 0.00 0.00

Powered by AerisWeather